| time (UTC) | temp F | wind direction | speed knots | gust knots | rain 1hr in | rain 24hr in | rain mn in | humidity % | barometer mb |
| 20260510031226 | 72 | 135 | 1.7 | 5.2 | 0.00 | 0.01 | 0.01 | 81 | 1020.6 |
| 20260510024226 | 75 | 141 | 3.5 | 7.8 | 0.00 | 0.01 | 0.01 | 75 | 1020.9 |
| 20260510021226 | 74 | 142 | 3.5 | 7.8 | 0.00 | 0.01 | 0.01 | 79 | 1021.1 |
| 20260510014226 | 72 | 148 | 2.6 | 5.2 | 0.00 | 0.01 | 0.01 | 83 | 1021.5 |
| 20260510011226 | 72 | 135 | 2.6 | 6.1 | 0.00 | 0.00 | 0.00 | 80 | 1022.0 |
| 20260510004226 | 70 | 162 | 2.6 | 6.1 | 0.00 | 0.00 | 0.00 | 83 | 1021.9 |
| 20260510001226 | 69 | 151 | 2.6 | 6.1 | 0.00 | 0.00 | 0.00 | 83 | 1022.0 |
| 20260509234226 | 70 | 167 | 3.5 | 7.0 | 0.00 | 0.00 | 0.00 | 84 | 1022.1 |
| 20260509231226 | 68 | 160 | 1.7 | 4.3 | 0.00 | 0.00 | 0.00 | 86 | 1022.0 |
| 20260509224226 | 68 | 172 | 2.6 | 7.0 | 0.00 | 0.00 | 0.00 | 86 | 1021.9 |
| 20260509221226 | 66 | 168 | 2.6 | 7.0 | 0.00 | 0.00 | 0.00 | 86 | 1021.5 |
| 20260509214226 | 64 | 169 | 2.6 | 4.3 | 0.00 | 0.00 | 0.00 | 90 | 1021.5 |
| 20260509211226 | 62 | 180 | 1.7 | 4.3 | 0.00 | 0.00 | 0.00 | 91 | 1021.1 |
| 20260509204226 | 61 | 177 | 1.7 | 3.5 | 0.00 | 0.00 | 0.00 | 91 | 1020.5 |
| 20260509201226 | 61 | 162 | 2.6 | 5.2 | 0.00 | 0.00 | 0.00 | 89 | 1020.0 |
| 20260509194226 | 60 | 177 | 1.7 | 3.5 | 0.00 | 0.00 | 0.00 | 88 | 1019.8 |
| 20260509191226 | 60 | 167 | 1.7 | 5.2 | 0.00 | 0.00 | 0.00 | 88 | 1019.3 |
| 20260509184226 | 60 | 188 | 0.9 | 3.5 | 0.00 | 0.00 | 0.00 | 88 | 1019.3 |
| 20260509181226 | 61 | 171 | 2.6 | 5.2 | 0.00 | 0.00 | 0.00 | 87 | 1019.1 |
| 20260509174226 | 61 | 171 | 1.7 | 3.5 | 0.00 | 0.00 | 0.00 | 87 | 1019.1 |
| 20260509171226 | 61 | 160 | 0.9 | 3.5 | 0.00 | 0.00 | 0.00 | 87 | 1019.1 |
| 20260509164226 | 61 | 180 | 0.9 | 3.5 | 0.00 | 0.00 | 0.00 | 87 | 1019.4 |
| 20260509161226 | 61 | 181 | 0.9 | 2.6 | 0.00 | 0.00 | 0.00 | 86 | 1019.6 |
| 20260509154226 | 62 | 169 | 0.9 | 2.6 | 0.00 | 0.00 | 0.00 | 86 | 1019.7 |
| 20260509151226 | 62 | 169 | 1.7 | 2.6 | 0.00 | 0.00 | 0.00 | 86 | 1019.7 |
| 20260509144226 | 62 | 157 | 1.7 | 3.5 | 0.00 | 0.00 | 0.00 | 86 | 1019.9 |
| 20260509141226 | 62 | 163 | 1.7 | 3.5 | 0.00 | 0.00 | 0.00 | 86 | 1020.0 |
| 20260509134226 | 63 | 145 | 0.9 | 2.6 | 0.00 | 0.00 | 0.00 | 85 | 1020.4 |
| 20260509131226 | 63 | 162 | 0.9 | 2.6 | 0.00 | 0.00 | 0.00 | 84 | 1020.7 |
| 20260509124226 | 64 | 161 | 1.7 | 3.5 | 0.00 | 0.00 | 0.00 | 84 | 1020.6 |
| 20260509121226 | 64 | 167 | 1.7 | 4.3 | 0.00 | 0.00 | 0.00 | 83 | 1020.4 |
| 20260509114226 | 65 | 159 | 1.7 | 3.5 | 0.00 | 0.00 | 0.00 | 82 | 1020.4 |
| 20260509111226 | 65 | 152 | 0.9 | 3.5 | 0.00 | 0.00 | 0.00 | 81 | 1020.4 |
| 20260509104226 | 66 | 166 | 0.9 | 5.2 | 0.00 | 0.00 | 0.00 | 81 | 1020.3 |
| 20260509101226 | 67 | 159 | 0.9 | 2.6 | 0.00 | 0.00 | 0.00 | 80 | 1020.4 |
| 20260509094226 | 67 | 159 | 0.9 | 2.6 | 0.00 | 0.00 | 0.00 | 80 | 1020.2 |
| 20260509091226 | 68 | 141 | 0.9 | 2.6 | 0.00 | 0.00 | 0.00 | 79 | 1019.8 |
| 20260509084226 | 68 | 135 | 0.9 | 3.5 | 0.00 | 0.00 | 0.00 | 77 | 1019.2 |
| 20260509081226 | 69 | 138 | 0.9 | 3.5 | 0.00 | 0.00 | 0.00 | 76 | 1019.1 |
| 20260509074226 | 70 | 135 | 1.7 | 3.5 | 0.00 | 0.00 | 0.00 | 73 | 1018.7 |
| 20260509071226 | 71 | 117 | 0.9 | 3.5 | 0.00 | 0.00 | 0.00 | 69 | 1018.3 |
| 20260509064226 | 72 | 107 | 1.7 | 4.3 | 0.00 | 0.00 | 0.00 | 68 | 1018.0 |
| 20260509061226 | 73 | 121 | 2.6 | 5.2 | 0.00 | 0.00 | 0.00 | 63 | 1017.7 |
| 20260509054226 | 73 | 106 | 2.6 | 7.8 | 0.00 | 0.00 | 0.00 | 63 | 1017.7 |
| 20260509051226 | 74 | 116 | 2.6 | 5.2 | 0.00 | 0.00 | 0.00 | 64 | 1017.5 |
| 20260509044226 | 75 | 117 | 2.6 | 4.3 | 0.00 | 0.00 | 0.00 | 64 | 1017.3 |
| 20260509041226 | 75 | 117 | 2.6 | 7.0 | 0.00 | 0.00 | 0.00 | 61 | 1017.3 |
| 20260509034226 | 75 | 102 | 3.5 | 7.8 | 0.00 | 0.00 | 0.00 | 62 | 1017.4 |